Wind_Speed
28 28 29 30 30 31 31 31 31 32 32 32 33 33 33 33 33 32 32 33 34 34 34 33 30 28 25 24 22 20 20 20 20 20 18 18 18 19 19 19 19 19 19 20 20 20 21 21 21 22 23 25 24 23 22 21 19 17 15 13 11 10 9 7 7 4 1 2 1 2 3 3 5 5 5 5 5 5 6 6 8 8 7 7 7 7 8 8
28 28 28 29 30 31 31 31 31 31 32 32 32 32 32 32 31 31 32 32 33 34 34 31 28 27 26 25 23 22 21 20 21 20 18 18 19 19 20 20 20 20 20 20 21 21 21 21 22 22 24 25 24 24 24 22 21 19 17 15 13 11 8 7 7 5 3 2 2 2 2 3 3 4 4 4 5 5 5 5 6 7 7 7 7 8 8 8
29 28 27 28 29 30 30 31 30 31 31 32 32 31 31 30 30 31 31 31 31 32 31 29 27 27 27 25 23 22 21 22 22 20 18 19 19 20 20 20 21 21 21 21 21 22 22 22 22 23 23 24 24 24 24 23 22 21 18 17 14 11 9 8 8 6 4 3 2 2 2 3 3 4 5 5 6 6 5 5 5 6 7 7 7 8 8 8
29 28 27 27 28 29 30 30 30 30 31 31 31 31 30 30 30 30 30 30 30 30 29 28 28 27 26 25 24 23 22 23 22 19 19 20 20 21 21 21 22 22 22 22 22 22 22 23 23 24 24 24 24 24 25 24 23 22 20 18 15 12 9 8 9 7 5 4 3 4 3 3 4 5 6 6 5 5 5 5 5 6 6 7 7 7 8 7
29 28 27 27 27 29 29 30 30 29 30 31 31 30 30 30 30 30 30 29 30 29 29 29 29 28 26 25 24 23 23 23 20 20 21 21 21 21 21 22 22 22 22 22 22 22 22 23 24 25 25 25 25 25 25 25 24 23 22 19 16 13 10 9 10 8 6 6 5 5 4 4 6 5 5 5 4 5 6 6 6 6 5 6 7 7 7 7
30 28 27 26 26 28 29 29 29 29 30 31 31 30 30 30 29 29 29 29 29 29 29 30 29 28 27 26 25 25 25 20 18 21 22 22 22 22 22 22 22 22 22 23 23 23 23 23 24 24 24 24 24 24 24 25 25 23 22 20 18 15 12 11 11 10 8 7 7 7 6 6 6 7 6 5 5 6 6 6 6 6 6 6 5 5 6 6
31 29 27 26 26 26 28 28 28 29 29 30 31 30 30 29 29 29 29 29 29 29 29 30 30 29 27 27 26 26 26 20 17 22 23 22 23 22 22 22 22 23 22 22 22 22 23 23 23 22 22 22 23 24 24 24 24 23 21 20 18 16 15 13 12 11 9 8 8 8 7 7 7 8 7 5 6 8 6 6 6 5 5 5 5 5 6 6
32 30 29 26 26 26 27 28 28 28 28 30 30 30 29 28 28 28 29 29 28 28 29 29 30 29 28 27 27 26 25 22 18 21 22 22 23 23 22 22 22 22 22 22 21 21 22 23 23 22 21 21 22 24 24 24 23 22 20 19 18 17 17 15 13 11 10 8 9 9 9 8 9 10 7 6 8 8 7 7 6 6 6 5 6 6 6 6
32 32 30 28 26 25 26 27 28 27 28 29 30 29 28 28 28 28 29 28 28 28 29 30 30 29 28 27 27 26 24 23 20 20 23 22 23 23 22 22 22 22 21 21 21 21 22 22 21 21 20 20 21 22 23 23 22 21 19 18 18 18 18 17 14 13 11 10 10 10 11 10 10 10 8 8 11 9 8 8 7 6 6 6 7 7 7 7
33 32 31 29 27 26 26 27 27 27 27 28 29 29 28 27 27 28 29 28 28 29 30 31 30 30 29 28 28 26 23 24 21 20 23 23 23 23 22 22 22 21 21 21 21 21 21 20 19 19 19 18 19 20 21 21 20 19 19 19 19 19 19 18 16 15 13 12 11 12 12 11 12 12 9 10 12 9 7 8 8 7 7 8 8 7 7 7
34 33 32 30 28 27 26 27 27 26 27 27 28 28 28 27 27 28 28 28 28 29 30 31 30 30 29 28 28 25 23 24 22 20 23 24 23 23 22 22 21 21 21 21 20 20 20 19 19 20 19 18 19 19 19 20 19 18 19 18 18 18 18 18 18 16 15 14 12 13 13 13 14 11 9 12 13 9 7 8 8 9 9 10 9 8 7 6
34 34 33 31 29 28 27 27 28 28 26 27 28 28 28 28 28 29 28 28 28 29 30 30 30 29 29 29 27 24 23 24 21 20 23 25 24 23 23 22 21 21 21 20 20 20 19 20 20 20 19 19 19 18 18 20 19 17 18 18 18 18 18 18 18 16 15 14 13 13 14 15 14 9 8 15 13 9 8 7 8 9 9 9 9 8 7 7
35 34 34 33 31 29 28 28 29 29 27 27 28 28 29 28 28 29 28 28 28 29 29 29 29 29 29 28 26 25 25 25 22 20 22 25 24 23 22 22 22 21 21 21 20 20 20 20 20 20 19 18 18 18 17 20 20 17 18 18 18 18 19 18 17 16 15 14 14 13 14 14 12 9 13 16 12 9 9 7 9 10 9 8 7 7 6 7
37 35 35 34 33 30 29 28 29 29 29 28 28 28 29 28 28 28 28 28 28 29 29 29 29 29 29 27 26 27 27 27 24 20 21 24 25 24 23 22 22 22 21 21 21 21 20 20 20 20 20 17 18 18 16 19 20 18 17 18 19 19 19 19 17 16 15 15 14 14 16 13 10 11 15 14 10 9 8 8 11 9 8 8 7 7 6 7
38 37 36 35 34 32 30 29 29 30 30 30 30 29 28 28 28 28 28 28 28 28 28 28 29 29 29 28 27 28 28 28 27 22 20 23 24 24 23 22 22 22 22 21 21 22 21 21 21 21 21 18 19 19 16 17 19 19 18 17 20 20 18 18 17 16 15 15 15 15 16 14 12 12 12 10 10 9 8 9 10 10 9 8 8 7 7 8
40 38 37 36 35 33 31 30 29 30 31 30 30 30 29 28 28 28 28 28 27 28 28 29 29 30 30 28 29 30 29 29 28 24 20 20 23 24 22 22 23 22 22 21 21 22 22 22 22 22 22 20 19 20 17 15 18 20 19 17 19 20 18 16 16 17 16 16 17 17 16 13 13 14 12 11 11 11 11 11 11 11 10 9 9 8 8 8
41 39 38 37 36 34 32 30 30 30 31 31 31 31 30 29 28 28 28 28 28 28 29 29 29 30 29 29 30 31 30 29 29 27 23 20 21 24 24 23 23 23 23 22 22 23 23 23 24 23 23 21 20 20 19 18 20 22 21 20 18 19 18 16 15 16 17 17 17 18 19 15 13 14 14 14 15 15 14 13 13 13 11 10 10 9 9 9
41 40 39 38 37 36 33 32 30 30 31 32 32 32 31 30 29 29 29 30 29 28 29 29 31 31 28 31 32 31 30 28 28 28 25 22 21 23 24 22 22 23 22 23 23 23 24 24 24 23 23 23 22 23 23 21 22 21 22 22 19 18 19 18 16 16 17 17 17 18 20 18 15 15 15 15 17 17 15 15 15 14 12 11 11 12 11 11
41 40 39 38 38 37 35 33 31 31 32 33 34 33 33 32 31 30 30 31 31 31 32 33 36 34 28 29 31 29 30 29 27 27 26 24 23 22 23 23 22 22 23 24 24 24 25 25 26 26 27 26 24 24 22 20 18 16 16 18 19 18 18 18 17 16 16 16 18 19 21 19 17 18 18 17 19 20 19 18 16 14 13 12 13 13 13 14
42 40 40 39 39 37 36 34 33 33 33 34 35 35 35 36 35 34 34 33 33 34 35 35 37 35 25 23 29 29 30 31 27 26 26 25 24 22 22 23 22 22 23 23 24 25 25 27 29 29 27 25 23 22 21 20 16 13 13 15 17 17 16 16 16 16 15 16 18 19 21 22 20 19 19 18 20 23 21 19 17 15 14 14 14 14 14 16
42 40 40 39 39 38 37 36 35 35 35 35 36 37 38 39 38 37 36 34 33 33 35 33 33 35 25 18 25 30 30 32 29 26 26 26 25 24 23 24 24 24 24 23 24 24 25 28 28 25 22 21 21 21 21 20 18 14 13 15 16 17 16 15 15 16 16 17 18 19 22 24 21 20 19 19 22 24 21 19 18 16 15 15 14 14 15 17
41 40 39 38 39 39 38 37 37 37 37 36 37 37 36 36 35 33 31 30 31 32 33 32 30 33 29 18 21 29 31 32 32 28 27 27 27 26 25 25 24 24 24 24 24 24 26 27 24 21 21 22 22 22 21 20 19 16 15 16 17 17 16 16 16 16 16 17 18 19 23 25 23 22 21 20 23 24 21 21 20 18 17 16 15 16 17 19
41 40 39 39 40 40 40 39 39 39 38 38 37 36 34 32 30 28 27 26 29 31 31 31 28 30 31 22 19 27 31 32 33 31 29 28 27 26 25 25 24 23 24 25 25 26 26 24 21 22 23 23 23 23 21 20 19 17 16 16 16 17 15 14 15 15 15 16 18 19 23 26 25 24 24 21 22 23 21 22 21 20 19 16 15 17 18 18
42 40 39 40 40 41 42 41 41 41 39 38 35 33 31 29 28 27 26 25 27 30 30 31 29 28 30 26 19 23 29 30 31 31 30 28 27 27 26 24 24 24 24 24 24 24 21 19 21 24 23 22 23 23 22 21 20 19 17 16 15 15 14 12 12 13 14 15 18 19 22 26 27 24 23 21 21 22 21 20 18 16 16 14 14 16 17 19
42 41 40 40 40 42 43 43 43 41 39 38 35 33 31 28 27 26 25 24 25 28 30 31 31 29 30 30 24 21 25 29 29 30 30 28 27 27 26 24 25 25 24 22 21 21 19 17 21 24 23 22 22 23 23 22 22 20 19 18 16 14 13 13 12 12 14 15 17 16 12 16 22 18 15 16 16 17 18 18 15 13 14 16 15 16 19 22
43 41 40 40 41 42 43 45 45 41 40 37 34 33 30 28 27 26 25 21 23 28 30 32 33 31 31 32 29 23 23 28 30 30 30 30 29 28 27 27 26 25 23 22 20 20 21 19 19 21 21 21 22 22 22 21 21 21 20 19 18 17 15 14 13 12 11 11 12 12 7 11 22 21 16 18 19 19 20 20 19 17 17 20 18 16 21 24
43 42 40 40 40 42 45 47 44 43 41 36 35 33 31 30 27 27 24 12 16 28 32 33 34 33 33 33 32 28 24 28 32 31 31 32 31 30 29 29 28 25 24 23 23 22 23 22 19 20 21 21 22 22 21 21 21 20 19 17 17 16 14 13 13 13 13 13 14 16 14 14 25 29 23 22 23 22 23 22 21 19 17 18 17 18 24 25
44 43 41 40 40 41 45 45 44 43 39 36 37 34 31 31 27 28 21 4 8 24 30 34 36 34 34 33 34 33 28 26 31 34 33 32 32 32 30 29 27 25 25 26 27 23 22 23 21 20 22 22 23 21 20 20 20 19 17 15 14 13 13 13 13 14 15 15 15 17 14 10 20 30 26 24 26 24 23 20 16 14 13 15 17 21 24 21
44 44 43 41 40 41 43 45 44 41 38 37 37 34 33 30 26 25 15 4 10 20 26 33 36 35 35 34 35 37 34 27 27 32 34 32 32 33 31 29 26 24 25 27 26 23 20 22 22 20 21 22 21 20 20 20 19 18 17 15 14 12 12 12 12 13 12 13 14 15 13 9 16 29 27 23 24 21 15 10 8 9 12 16 20 22 20 16
43 45 44 42 42 42 43 45 43 40 40 40 37 36 33 29 29 22 7 10 19 20 23 31 36 38 38 38 38 39 39 33 27 28 32 33 32 33 31 29 26 25 25 25 25 25 22 21 23 23 22 21 20 20 20 20 19 18 17 15 12 10 11 10 11 12 8 9 11 12 15 12 9 17 19 16 15 9 3 5 5 8 12 16 19 18 15 13
41 44 45 45 43 42 43 43 42 42 42 41 39 37 34 31 32 19 6 18 24 20 26 30 34 40 40 42 42 41 41 38 32 28 30 35 34 34 32 30 29 25 24 26 26 26 23 20 22 24 24 23 21 20 20 20 20 18 16 14 10 7 7 8 9 8 4 5 4 5 11 15 12 10 8 5 4 6 6 4 5 8 11 13 13 13 13 11
38 42 44 46 45 43 42 40 42 43 42 43 39 38 38 31 26 21 18 23 19 19 32 32 33 42 42 43 44 42 42 40 36 31 30 33 36 37 36 35 34 29 24 28 27 25 25 24 23 23 24 25 24 23 21 20 20 19 16 14 11 3 1 5 4 3 6 7 5 6 8 14 23 24 15 6 9 10 7 3 5 10 14 13 12 14 14 10
33 38 43 47 46 44 42 40 43 43 43 44 39 40 41 25 20 33 36 28 15 18 33 34 33 40 42 44 44 42 42 40 39 35 30 31 34 37 37 35 37 34 29 31 30 26 23 24 27 26 25 26 27 26 26 24 22 22 21 18 14 5 3 3 3 2 6 8 7 9 8 13 24 26 19 14 16 16 14 11 9 14 16 13 11 13 14 11
30 35 42 47 47 44 42 41 44 45 43 44 42 42 39 22 25 43 43 33 20 15 28 35 34 37 41 44 45 43 42 39 38 37 32 31 33 37 39 38 38 38 34 30 30 30 23 19 28 32 27 26 28 28 26 23 22 22 23 23 21 14 6 4 4 3 3 2 6 9 7 9 12 10 7 10 18 20 17 13 14 18 16 14 14 14 16 14
29 34 40 46 47 44 44 43 44 46 44 46 46 44 38 31 38 48 46 42 30 18 25 33 34 37 40 42 44 43 42 39 38 37 34 34 36 38 41 42 41 40 37 31 29 32 29 22 25 31 31 27 26 27 25 22 20 21 23 24 24 21 13 4 3 5 1 3 3 10 12 16 16 14 9 6 11 12 8 9 16 21 18 15 16 18 18 15
29 34 39 45 47 45 45 45 46 47 47 47 47 45 46 47 47 48 48 48 40 30 29 33 34 37 40 41 41 42 42 40 39 38 37 37 38 38 39 41 42 42 41 37 30 29 28 24 22 24 30 29 25 25 27 25 22 21 25 28 25 21 17 9 4 4 2 3 7 10 18 26 24 23 23 18 17 16 12 12 17 22 21 18 18 22 19 14
30 33 39 44 46 46 45 46 46 48 49 50 50 50 53 55 50 45 44 45 44 36 29 32 34 36 40 42 41 43 43 41 38 39 40 39 37 40 41 40 41 43 43 40 34 30 26 23 21 21 25 29 28 25 27 28 26 24 25 28 24 18 18 15 5 1 0 2 8 12 21 26 21 17 17 14 14 15 15 15 18 21 20 18 20 24 22 16
29 31 36 40 44 46 46 46 47 49 50 51 52 53 55 54 49 42 38 41 45 38 29 31 34 36 39 42 42 44 44 41 39 40 42 39 36 41 46 43 41 41 42 41 36 31 25 19 18 22 23 25 28 27 27 30 31 29 26 24 21 15 14 16 9 1 1 2 5 9 16 23 25 24 19 12 10 11 12 14 15 16 17 18 22 25 24 20
28 29 31 37 42 45 46 47 48 49 51 53 54 55 55 54 49 43 38 38 41 41 34 29 31 35 39 39 41 44 45 44 44 43 41 39 38 40 43 45 44 41 40 41 38 32 28 20 15 21 24 25 28 31 33 35 35 33 27 21 21 17 13 17 16 8 3 3 3 5 6 15 24 24 21 17 15 12 11 11 10 11 14 18 21 24 24 25
28 28 29 34 40 44 47 47 48 51 53 54 57 57 54 52 49 45 41 35 35 39 39 33 30 33 36 38 39 41 45 45 47 46 42 40 41 40 39 41 44 43 39 39 40 36 31 26 20 20 24 27 30 34 38 39 36 34 30 25 25 24 18 15 18 17 9 4 3 1 5 14 17 12 9 5 5 7 9 10 11 12 15 19 22 24 26 26
28 28 28 33 38 43 47 48 50 54 55 55 57 57 52 49 48 45 41 36 33 34 38 37 34 32 33 36 38 39 43 45 46 47 45 45 45 42 40 40 41 43 41 40 42 40 35 30 26 23 26 31 34 34 36 35 33 34 34 32 34 34 28 16 10 19 19 9 6 3 6 22 23 14 10 5 6 11 13 10 7 8 12 16 18 19 20 21
31 31 30 32 37 42 47 50 51 54 56 57 57 56 52 48 46 43 39 37 34 31 32 35 37 36 33 33 35 37 39 43 45 46 46 48 48 45 42 39 37 38 40 42 43 43 38 31 27 26 27 30 30 29 31 32 33 34 34 37 38 38 39 27 12 15 20 17 16 6 6 28 32 20 16 11 9 11 10 8 9 10 12 13 13 15 17 21
31 33 33 32 36 41 45 48 51 54 57 58 57 55 53 49 44 40 38 37 35 32 31 31 34 38 36 34 34 35 36 38 41 43 44 45 47 46 41 37 34 33 36 39 42 43 39 32 29 26 23 26 28 30 30 29 32 36 37 40 40 39 41 35 23 17 16 20 22 8 6 27 28 15 12 10 9 10 9 9 10 10 13 14 15 17 20 22
25 29 34 35 34 38 44 48 53 57 58 58 56 53 52 50 45 41 38 37 36 34 32 31 31 34 37 36 35 35 34 34 35 38 41 42 43 44 42 39 35 32 33 36 40 42 38 33 30 19 8 10 16 20 26 31 35 39 42 43 43 41 38 34 31 22 15 23 26 13 13 30 25 14 11 7 6 10 10 7 5 5 10 14 16 17 18 21
25 24 31 36 35 38 45 48 52 56 57 56 55 54 52 49 46 44 41 39 38 35 33 32 31 32 34 36 35 34 34 33 33 33 36 39 39 39 41 42 39 35 33 31 34 38 38 38 38 25 12 10 13 18 31 41 42 41 43 43 43 42 38 36 34 24 20 30 31 26 29 36 30 21 15 11 12 13 8 5 9 9 10 14 16 17 19 21
27 26 28 32 32 35 46 50 50 52 55 55 54 54 53 51 48 46 43 40 39 37 34 31 31 31 32 34 34 34 34 34 33 33 33 34 35 35 36 39 40 39 35 30 29 33 36 40 43 41 36 34 36 38 41 41 39 40 43 44 42 41 40 39 35 32 36 36 32 39 47 44 40 32 21 19 18 16 16 20 19 17 16 17 19 21 22 23
28 28 30 31 28 30 40 51 54 54 54 54 54 54 55 54 51 46 44 41 40 39 36 32 30 30 32 34 35 34 35 35 35 36 35 32 32 32 32 34 36 38 37 33 29 30 35 39 42 46 48 48 48 46 42 37 36 38 41 43 43 42 41 42 40 42 45 34 30 47 51 45 49 45 35 34 32 29 32 31 26 24 24 23 24 25 27 28
30 29 30 31 30 28 31 41 51 57 58 55 54 53 53 54 52 49 47 45 43 42 39 36 34 33 33 34 35 35 34 35 36 37 37 34 32 30 30 32 32 34 36 36 33 32 33 36 39 43 46 47 47 45 42 39 37 36 36 37 40 42 43 46 47 49 49 42 41 52 48 44 51 48 41 42 40 37 36 30 27 29 29 29 29 29 31 33
33 32 31 32 32 30 29 32 40 49 56 57 56 55 53 51 53 53 51 47 46 44 43 42 41 39 35 33 35 36 36 36 38 39 39 38 36 33 32 32 32 33 35 36 36 34 33 35 36 38 41 42 44 45 45 43 40 39 38 35 34 36 40 44 46 47 51 53 52 51 47 49 50 45 43 40 36 35 32 29 32 33 33 34 33 33 34 35
34 34 33 34 34 32 31 32 35 39 44 49 53 56 56 54 53 53 52 50 49 47 46 47 47 45 41 37 36 37 38 38 39 39 39 39 39 37 34 33 34 34 33 35 36 35 35 35 34 35 36 37 40 42 43 45 44 42 41 38 35 34 35 40 43 45 50 54 52 49 51 52 47 42 40 35 32 33 33 34 37 36 37 39 37 36 36 36
35 35 35 35 36 36 33 32 33 35 38 42 46 48 51 53 55 54 52 52 52 50 50 51 50 45 42 40 39 38 38 38 37 37 36 36 37 38 36 35 34 33 33 33 34 36 36 35 35 34 31 34 39 38 38 43 42 40 41 40 39 40 40 43 44 43 46 48 46 47 51 50 44 39 37 36 37 37 37 39 40 39 41 41 37 36 37 37
36 36 37 36 36 38 39 36 32 30 32 37 40 42 41 42 47 49 50 51 53 51 49 50 50 47 44 44 43 40 37 36 36 36 34 32 32 34 34 34 33 33 33 32 32 35 36 36 38 35 29 33 40 38 37 36 28 29 40 43 42 44 45 46 45 43 42 42 42 46 48 47 43 41 41 43 43 40 39 40 41 42 43 41 38 37 37 38
Wind_Direction
208 208 209 209 210 211 213 213 212 212 212 211 210 210 209 208 208 206 205 205 204 202 208 216 217 216 217 219 221 221 222 220 216 209 205 204 201 198 195 193 192 189 187 187 189 192 192 190 191 190 191 192 194 195 196 198 199 200 202 199 196 194 194 201 198 191 182 186 222 226 199 177 168 164 165 171 173 175 173 167 169 175 180 180 172 174 186 188
208 209 209 209 209 210 213 213 214 214 213 212 211 211 210 208 208 206 204 205 205 205 211 218 216 214 214 216 217 219 221 220 216 210 206 205 201 197 195 193 192 190 188 188 190 192 192 193 195 194 194 195 195 196 198 199 199 203 205 201 199 198 199 207 203 201 206 188 219 256 236 215 198 183 177 175 180 180 174 171 169 172 179 186 184 184 192 189
208 209 210 210 209 209 212 213 214 214 213 213 212 211 210 208 207 207 205 204 205 206 210 215 215 213 212 212 214 216 218 218 216 210 206 204 199 196 195 194 193 191 189 190 191 191 192 194 196 197 197 196 196 197 199 200 201 204 206 203 201 197 200 211 203 195 197 195 218 265 258 235 227 209 196 187 187 182 175 175 173 174 180 190 193 194 199 195
208 209 210 210 209 209 210 212 212 212 212 212 211 210 209 208 207 207 205 204 204 204 206 210 213 212 210 209 212 214 215 217 215 208 205 201 197 196 194 195 193 191 190 191 191 192 192 193 196 198 198 198 198 198 200 202 204 206 207 207 204 200 204 212 202 193 200 214 241 266 278 261 241 225 212 204 192 179 177 181 181 183 185 192 200 202 206 202
208 209 211 211 210 209 208 210 210 211 211 211 210 208 207 206 205 206 205 203 202 201 202 206 209 208 207 207 210 211 212 215 213 206 203 198 195 195 194 196 194 192 192 192 192 192 192 193 195 197 198 199 199 199 201 203 205 207 209 209 208 206 208 210 202 199 211 227 250 268 282 265 246 238 223 213 207 194 184 182 185 186 187 194 202 203 206 209
208 209 211 212 210 209 208 208 208 209 209 209 208 206 205 203 203 205 203 201 200 199 200 202 204 205 205 205 208 210 210 211 209 204 200 196 194 194 194 195 195 194 194 193 193 192 193 194 195 197 198 199 201 201 202 204 206 209 210 211 211 210 208 207 204 206 215 228 251 267 264 251 250 250 235 218 218 217 196 187 194 189 190 199 208 207 205 211
208 209 211 212 211 210 208 207 207 207 208 207 206 204 203 201 201 203 201 199 197 197 197 198 201 202 203 204 206 210 211 209 206 202 199 195 193 193 194 195 195 196 196 195 195 194 195 195 195 196 196 199 201 202 203 205 207 209 210 211 213 212 208 207 206 210 219 232 253 260 251 242 245 247 240 220 224 229 213 202 206 202 197 197 208 213 210 214
208 208 210 211 211 210 208 206 206 206 206 206 204 203 200 199 200 201 200 197 195 195 195 196 198 199 201 203 206 211 211 206 203 200 197 195 193 193 194 196 196 197 197 197 197 196 197 197 195 194 194 198 201 203 203 204 207 208 208 209 212 213 211 213 212 215 224 236 250 254 248 237 235 243 241 225 229 229 219 216 213 211 207 198 205 211 213 218
209 209 209 210 211 210 208 206 205 205 205 205 204 201 199 198 199 201 200 194 192 193 194 195 196 197 200 202 207 212 209 204 202 198 196 194 193 194 194 196 197 198 198 199 199 198 199 199 197 195 195 198 201 203 203 203 206 206 205 207 211 214 214 218 220 222 228 237 247 250 246 237 236 243 236 229 235 227 219 226 224 220 213 206 210 211 214 219
209 209 209 209 209 209 208 205 205 205 205 205 205 202 198 197 198 200 198 192 191 193 194 195 194 195 198 202 208 209 204 203 202 198 195 193 193 194 194 196 197 197 198 200 201 200 200 199 198 197 196 200 202 202 202 203 205 205 205 208 212 215 217 220 225 228 232 240 244 244 245 241 240 243 237 237 241 232 218 220 223 221 213 210 212 213 217 220
210 209 209 210 209 208 207 205 203 204 206 206 206 203 200 197 198 199 196 191 191 193 194 194 194 195 197 203 208 205 200 201 201 198 195 193 194 194 195 196 196 197 198 199 200 201 200 199 198 198 198 201 201 201 202 202 204 205 205 209 214 218 221 224 228 232 235 238 237 238 244 245 241 241 240 242 242 234 217 210 213 209 204 206 208 212 215 218
210 209 209 209 209 208 206 204 202 201 204 206 207 205 201 196 196 197 194 191 193 194 195 194 195 196 198 204 204 199 198 198 198 199 197 194 194 195 196 197 197 198 198 198 199 199 199 199 199 199 199 202 200 199 202 202 203 203 203 209 215 220 224 227 231 232 231 230 229 235 246 248 244 237 236 243 241 233 224 213 209 203 202 205 205 211 213 222
210 209 209 208 209 209 206 204 203 201 200 203 206 204 201 196 194 195 194 193 194 195 196 195 196 198 201 203 198 195 197 194 194 198 198 197 196 195 197 198 198 198 197 196 196 197 198 199 200 199 200 203 200 198 202 202 202 202 203 206 212 218 224 226 229 228 225 224 223 230 241 247 249 237 234 243 243 238 241 227 212 206 208 213 213 217 218 232
209 209 209 208 208 208 206 204 202 201 198 199 202 202 199 195 192 194 195 194 195 197 197 197 198 200 204 202 195 196 196 192 192 193 195 198 198 197 197 198 200 200 198 197 195 195 196 198 199 199 201 202 201 201 203 203 201 201 202 206 211 216 221 223 226 226 222 222 222 228 237 240 248 243 237 242 243 240 240 221 212 214 221 224 228 232 230 240
207 208 209 208 208 207 206 204 201 200 198 198 200 199 198 195 193 194 195 196 196 197 198 199 200 201 203 201 197 197 196 194 192 188 191 196 198 198 197 198 200 200 198 197 196 194 193 195 197 199 202 202 201 203 204 202 201 201 200 205 211 214 219 222 222 224 222 223 223 227 235 235 238 243 240 236 231 230 230 221 220 224 230 234 239 242 241 245
207 207 208 208 207 206 206 203 201 200 199 198 199 199 198 197 195 194 196 198 197 198 200 200 201 202 203 201 200 199 196 196 194 190 189 191 195 195 195 197 198 198 196 195 195 195 193 194 197 200 204 204 203 204 204 202 200 202 204 208 212 213 216 219 220 222 223 225 225 228 233 231 232 239 236 233 234 234 235 234 232 229 233 242 248 251 252 253
207 207 207 207 206 206 205 203 200 199 199 198 199 200 199 198 196 196 197 198 199 199 200 201 202 204 205 202 200 200 197 196 196 195 193 190 192 193 193 195 196 195 193 192 194 194 193 195 199 201 204 206 205 204 201 199 200 202 205 210 214 214 215 219 220 221 223 226 229 233 236 231 227 234 234 234 238 237 234 232 233 235 242 252 256 261 263 259
207 207 207 206 205 205 204 203 201 198 199 199 199 200 200 199 198 197 197 199 200 200 200 202 202 202 206 205 201 200 198 197 198 199 198 195 193 192 192 193 194 195 192 191 193 193 193 196 200 203 205 205 205 205 204 206 210 209 209 213 216 216 217 220 222 224 226 228 232 236 241 237 228 233 236 235 237 236 232 231 234 241 248 254 260 265 268 266
208 207 207 206 205 204 203 203 201 198 199 200 199 199 200 200 199 199 199 200 201 200 200 203 202 200 204 206 201 198 197 197 199 199 199 199 195 192 191 191 192 193 192 192 193 194 194 196 199 204 206 206 206 209 211 216 221 222 223 225 225 222 222 221 222 226 226 228 233 239 245 244 233 232 237 241 247 245 240 238 240 243 246 248 256 262 266 269
208 207 207 206 204 203 203 202 201 199 199 200 200 199 200 201 199 199 200 201 203 203 203 205 205 202 203 205 201 198 197 197 198 197 198 198 197 194 191 191 191 192 195 195 195 196 196 199 204 206 208 209 209 211 214 218 222 224 226 228 229 229 228 225 223 225 227 230 235 241 248 248 240 235 237 242 250 251 248 247 246 243 245 248 252 259 265 269
208 208 207 206 204 202 202 202 202 201 200 201 202 202 203 203 203 202 200 200 202 205 207 208 207 204 203 203 201 199 198 198 197 196 197 197 197 195 192 192 191 191 194 195 198 199 200 205 208 209 211 212 212 214 215 219 223 226 224 222 225 227 229 227 225 227 232 237 242 247 252 253 248 243 239 238 245 251 255 257 257 254 255 256 258 264 269 271
206 208 207 206 204 202 201 201 202 203 203 203 204 205 206 207 208 209 206 205 206 207 208 209 209 206 202 200 200 200 200 200 198 196 196 197 197 195 196 195 194 194 194 194 197 199 203 209 208 208 211 210 211 214 216 218 223 227 224 220 221 224 226 225 227 230 236 245 250 254 257 256 254 253 248 241 244 249 253 257 260 262 262 264 268 269 269 268
205 206 207 207 205 202 201 201 203 204 205 206 206 206 206 207 208 211 210 212 215 214 212 212 212 208 204 201 200 200 201 202 201 199 197 198 198 197 199 198 196 197 198 198 198 199 205 208 205 207 210 209 210 213 215 216 219 221 219 217 217 221 222 221 227 233 238 249 256 262 267 260 254 256 255 250 249 250 253 257 259 263 267 267 265 261 260 260
203 204 205 206 205 203 201 202 204 205 206 206 206 205 206 206 206 209 210 211 217 218 216 215 214 212 207 205 204 202 202 203 204 204 203 201 200 200 201 201 199 200 201 202 202 205 209 205 203 207 208 208 210 212 213 213 214 216 215 214 216 219 221 224 232 240 248 257 264 274 282 271 263 265 264 258 255 254 256 256 257 261 261 257 252 250 251 253
202 203 204 206 206 204 202 203 205 205 205 205 203 203 204 203 203 206 209 212 218 218 215 215 214 213 210 207 207 205 202 204 204 206 208 206 204 205 202 201 203 203 202 203 204 208 212 209 206 208 208 207 209 212 213 212 213 216 217 217 218 219 225 234 240 251 262 267 271 278 290 279 271 271 269 263 257 255 256 256 258 256 250 254 258 252 250 252
202 202 203 205 206 204 202 205 205 204 205 203 202 201 200 199 200 202 204 210 221 219 214 212 212 211 210 207 206 204 203 206 204 204 208 208 207 208 206 204 205 204 203 202 203 206 209 211 210 209 209 207 206 209 212 212 214 218 222 223 224 228 233 242 249 256 262 263 270 272 268 279 277 268 263 268 266 263 265 267 269 266 261 266 265 251 248 252
202 203 202 204 206 204 204 205 204 204 203 200 200 199 196 196 196 198 199 207 231 222 214 211 210 209 209 207 205 203 203 205 203 202 206 207 208 208 208 209 206 203 202 200 203 207 207 208 208 207 207 207 205 205 207 209 212 219 224 224 227 233 236 244 252 254 258 263 268 269 266 277 278 271 267 272 271 270 272 274 277 276 269 264 254 239 244 253
203 204 204 204 206 205 206 206 205 204 201 199 200 197 194 193 192 194 194 186 225 216 213 212 210 209 208 206 206 207 208 207 203 202 204 205 208 209 209 212 210 206 205 205 207 208 208 208 209 208 207 208 207 204 204 205 209 216 221 224 227 233 238 245 252 255 263 272 269 265 264 264 270 273 277 279 277 279 282 283 281 274 256 240 232 234 243 252
204 205 205 204 205 205 205 205 204 203 199 199 200 195 191 190 188 187 187 200 207 206 210 209 207 208 207 205 207 209 211 210 206 205 204 203 206 208 209 210 211 211 212 214 215 214 212 210 210 212 212 212 210 206 206 207 211 217 220 228 233 236 243 246 250 255 265 272 265 262 260 251 271 277 277 278 282 286 288 281 267 254 240 228 225 230 238 240
206 206 205 205 205 206 205 204 201 198 198 199 197 193 189 185 183 178 173 212 206 205 207 205 205 205 205 205 206 209 211 212 210 207 204 204 205 207 209 208 208 211 215 216 217 218 218 213 210 210 211 212 210 207 209 211 215 221 223 226 228 234 242 243 248 255 269 273 261 258 252 241 269 285 280 280 283 281 238 205 239 251 239 231 225 221 222 222
206 206 206 206 206 206 205 203 198 196 197 196 193 189 183 181 183 177 185 209 203 204 204 201 202 204 206 207 207 208 209 211 211 207 205 205 204 205 205 204 202 204 214 216 214 216 218 215 213 212 212 210 209 208 210 213 215 216 216 213 210 222 238 246 250 242 243 262 241 228 238 233 234 253 277 289 229 185 162 179 256 248 223 211 204 200 203 209
206 205 205 204 205 205 203 200 198 197 196 193 189 185 179 177 185 193 204 205 202 207 206 203 203 205 207 209 209 210 208 209 210 209 210 207 205 205 205 204 202 197 203 211 211 213 216 217 216 215 216 213 211 208 204 206 209 208 207 203 201 199 226 246 253 222 234 247 227 215 225 237 247 253 258 232 177 181 198 231 244 212 193 185 189 196 198 201
207 205 203 202 203 203 199 196 197 196 194 191 185 182 180 175 194 202 202 202 198 206 209 209 209 208 206 206 209 211 209 209 209 209 211 212 210 209 207 209 208 206 206 206 206 206 210 219 220 216 215 214 213 210 204 203 205 208 212 209 202 170 94 249 261 283 263 251 222 218 229 252 262 269 267 231 205 215 237 252 232 198 187 196 209 207 205 216
208 205 202 200 200 199 196 194 195 195 192 189 183 181 181 185 205 204 203 205 200 197 206 208 207 206 206 207 209 211 208 207 209 208 207 208 211 210 209 209 210 214 214 205 204 205 203 215 220 216 215 214 215 215 216 218 219 219 221 220 218 209 186 211 220 215 262 256 201 202 219 252 255 272 281 219 211 228 244 243 214 200 203 218 231 230 223 230
207 206 202 199 197 195 193 193 194 193 191 187 183 182 185 196 206 206 206 207 201 196 200 203 204 202 202 206 209 210 209 207 207 208 208 208 211 212 212 210 208 211 212 206 204 206 207 217 221 216 217 218 217 217 219 221 222 223 221 220 223 222 217 216 209 216 263 12 235 214 229 249 248 253 261 214 202 211 219 222 206 203 212 222 237 242 232 232
202 205 201 197 195 193 192 192 192 192 190 187 184 186 194 203 208 209 209 207 204 203 194 190 197 198 196 200 205 207 209 210 208 207 208 212 215 216 216 215 213 212 212 210 204 203 207 216 222 217 215 216 215 216 217 216 216 217 216 216 219 220 222 225 227 245 275 296 261 237 245 256 261 265 264 256 252 241 229 228 212 208 220 233 248 245 228 230
197 201 200 196 193 192 191 190 191 191 190 187 187 194 202 207 210 212 211 208 206 206 197 187 191 196 195 197 201 204 206 208 207 207 208 211 215 218 217 217 218 218 217 215 211 210 210 212 217 216 212 213 213 213 216 219 220 218 216 218 219 218 223 224 224 315 75 270 263 245 251 259 260 264 266 259 253 241 228 224 215 218 231 235 239 236 228 239
197 196 197 196 193 192 191 189 190 191 189 189 193 201 207 208 211 212 212 211 208 207 203 195 194 198 199 200 201 203 205 205 204 206 208 209 215 221 218 216 218 219 219 219 217 218 216 210 213 214 210 211 213 213 213 217 221 223 224 221 213 209 212 209 202 204 179 228 278 256 254 261 256 254 260 258 248 240 239 242 238 236 234 223 224 229 232 246
198 195 193 194 193 192 191 188 189 190 188 190 197 205 209 210 212 213 213 214 212 209 206 202 200 201 203 206 206 203 204 206 206 207 209 210 216 223 222 220 219 218 218 219 220 221 219 214 213 212 209 207 210 212 213 214 214 217 221 218 213 212 210 206 207 213 190 181 256 284 272 266 265 266 269 268 262 254 242 235 220 208 212 214 219 226 234 245
199 196 191 191 191 191 191 189 189 189 191 197 202 207 210 211 212 214 214 214 214 213 211 207 207 205 204 208 210 206 206 209 211 211 212 214 219 224 224 222 222 221 218 218 221 223 222 220 220 212 204 204 210 215 218 219 214 213 214 212 213 213 208 211 220 222 214 177 192 259 282 267 271 283 286 270 230 204 181 177 177 181 199 210 218 227 234 239
197 197 193 191 190 190 190 189 189 191 196 204 207 208 211 212 212 214 215 215 215 218 217 213 213 214 210 208 209 210 208 209 212 214 215 218 221 224 226 225 224 222 217 215 218 221 220 219 219 212 204 209 216 219 223 225 224 226 227 225 224 219 210 203 215 221 218 218 214 176 272 269 267 270 271 253 175 170 154 151 181 200 206 211 217 226 232 239
189 195 194 192 191 190 190 191 192 195 200 205 207 209 212 212 213 214 216 216 217 219 220 218 218 220 220 217 214 213 212 211 213 214 217 222 225 228 229 227 225 222 219 218 220 221 219 218 219 219 220 223 224 225 226 226 227 230 234 235 233 226 217 208 203 216 211 220 234 219 269 269 268 268 261 246 218 203 191 207 233 224 214 214 221 233 246 255
181 186 189 192 194 192 191 192 193 197 203 206 207 210 212 213 213 213 213 215 216 218 219 218 218 220 223 223 219 216 215 215 216 219 222 225 228 229 228 227 226 221 219 220 221 220 219 219 217 217 224 226 225 227 228 226 226 227 230 233 230 227 224 218 219 225 212 217 227 207 255 262 262 260 251 246 241 226 205 203 206 208 220 228 237 250 259 261
188 180 180 186 194 196 196 196 197 199 204 208 208 209 212 214 215 213 212 213 215 217 217 217 217 219 222 225 224 222 220 217 218 224 226 228 230 230 229 228 228 223 220 221 223 220 216 214 211 202 199 223 224 229 230 227 225 226 228 229 228 229 226 221 224 228 228 234 227 204 239 253 252 248 242 224 190 173 158 164 193 229 250 249 250 258 262 255
207 193 182 180 188 199 202 203 203 203 206 208 209 211 213 213 214 214 213 212 213 214 215 216 216 217 220 223 225 225 225 224 225 226 226 229 232 233 231 230 230 229 228 228 228 225 218 215 213 203 185 199 210 217 223 222 220 221 225 226 227 228 225 224 225 221 232 243 231 219 238 249 251 249 237 210 187 173 174 248 269 268 264 260 260 265 264 255
210 208 197 186 187 199 205 207 208 208 209 210 211 214 215 215 216 215 213 211 211 211 212 212 213 213 214 217 220 222 223 225 228 229 229 230 231 233 234 233 233 232 231 229 227 227 222 221 222 220 217 222 227 227 228 227 222 222 228 228 228 229 229 228 223 219 232 239 234 235 242 247 250 248 237 230 222 212 237 265 273 271 270 272 270 268 264 259
209 209 209 204 199 201 205 207 209 211 213 213 214 215 217 217 218 217 216 214 212 211 210 210 208 207 209 212 215 219 220 220 224 227 229 231 231 232 232 233 234 233 231 228 225 225 223 223 227 229 230 236 239 237 237 238 235 234 235 234 232 231 229 226 223 228 234 231 237 245 244 245 251 251 247 250 248 247 259 271 276 276 278 279 274 269 263 258
211 209 209 210 207 207 211 211 209 211 213 214 216 217 218 219 219 219 218 217 217 215 214 213 211 208 209 210 212 215 217 217 221 225 227 228 229 229 228 229 231 231 229 226 224 223 224 227 231 233 235 241 242 240 240 242 244 245 245 243 240 236 232 228 230 238 236 229 240 251 248 249 257 258 257 260 262 265 271 275 273 275 281 282 278 271 262 258
213 211 209 209 208 211 217 218 214 212 213 214 217 219 219 220 221 221 221 219 218 217 217 218 217 214 213 213 213 215 215 214 217 221 224 226 227 226 225 225 226 227 226 224 223 222 224 229 234 235 238 242 243 242 243 244 246 247 247 248 247 243 240 239 242 246 242 238 246 254 253 256 262 265 264 266 268 270 271 271 271 275 283 287 285 277 268 265
212 213 211 211 212 212 215 217 215 213 213 215 219 222 222 223 223 222 222 221 220 219 219 220 221 220 219 218 217 219 221 221 223 225 224 225 226 226 225 225 226 226 224 222 221 221 223 228 233 236 238 243 244 244 245 245 245 247 247 248 248 246 245 245 247 248 243 240 246 251 253 257 261 263 266 268 268 267 268 271 275 280 285 288 287 281 275 272
213 213 213 214 215 217 218 217 214 212 213 214 218 222 224 225 227 227 226 225 223 222 222 224 223 221 220 220 219 221 225 227 230 232 231 231 231 230 230 229 229 228 226 224 222 221 223 227 231 234 236 241 243 243 245 246 245 244 244 245 244 243 242 241 243 244 241 241 245 246 249 255 259 264 270 271 268 268 271 275 280 283 285 284 280 278 277 276
215 215 214 215 217 218 220 222 219 217 217 216 219 223 223 224 227 228 228 229 227 225 225 227 226 224 222 222 222 222 223 224 227 229 231 233 234 234 234 234 233 232 230 229 227 225 225 227 230 230 231 239 243 243 244 243 240 237 239 240 239 240 241 243 244 245 244 244 245 246 250 259 265 270 272 272 271 274 276 279 281 281 281 280 276 276 277 276
Height
3076 3078 3079 3081 3084 3086 3088 3090 3093 3095 3097 3100 3102 3104 3106 3108 3110 3112 3115 3117 3120 3122 3124 3126 3129 3132 3133 3134 3135 3136 3138 3139 3141 3142 3144 3145 3147 3148 3149 3151 3153 3155 3156 3157 3159 3160 3162 3163 3165 3167 3169 3171 3173 3175 3177 3178 3179 3180 3181 3182 3182 3182 3183 3183 3183 3184 3184 3184 3184 3185 3185 3185 3185 3185 3185 3185 3186 3186 3186 3187 3188 3188 3188 3189 3189 3190 3190 3191
3075 3076 3078 3080 3082 3084 3087 3089 3091 3093 3096 3098 3101 3102 3104 3106 3109 3111 3113 3116 3118 3121 3122 3124 3127 3130 3132 3133 3134 3135 3137 3139 3140 3141 3143 3144 3146 3147 3149 3150 3152 3154 3155 3157 3158 3160 3161 3163 3165 3167 3168 3170 3172 3174 3175 3177 3178 3179 3180 3181 3181 3182 3182 3183 3183 3183 3184 3184 3184 3185 3185 3185 3185 3185 3185 3185 3186 3186 3186 3187 3188 3188 3189 3189 3189 3190 3190 3191
3073 3075 3077 3079 3081 3083 3085 3087 3090 3092 3094 3097 3099 3101 3103 3105 3107 3109 3112 3114 3117 3120 3121 3123 3125 3128 3130 3132 3133 3135 3136 3137 3138 3140 3142 3143 3145 3146 3148 3150 3152 3153 3155 3156 3158 3159 3160 3163 3164 3166 3167 3169 3171 3173 3175 3176 3177 3178 3179 3180 3181 3182 3182 3183 3183 3183 3184 3184 3184 3185 3185 3185 3185 3185 3185 3186 3186 3186 3187 3187 3188 3188 3188 3189 3189 3190 3190 3191
3071 3073 3075 3077 3079 3081 3083 3086 3088 3090 3093 3095 3098 3100 3102 3104 3106 3108 3110 3113 3116 3119 3121 3122 3124 3126 3128 3130 3132 3134 3136 3136 3137 3140 3141 3142 3144 3146 3148 3149 3151 3153 3154 3156 3157 3158 3160 3162 3164 3165 3167 3168 3170 3172 3174 3175 3176 3177 3179 3180 3181 3181 3182 3182 3183 3183 3183 3184 3184 3185 3185 3185 3185 3185 3186 3186 3186 3187 3187 3187 3187 3188 3188 3188 3189 3189 3190 3190
3069 3072 3073 3075 3077 3079 3082 3084 3086 3089 3091 3094 3096 3098 3100 3102 3104 3106 3109 3112 3115 3117 3120 3121 3123 3125 3126 3128 3131 3133 3134 3135 3136 3139 3140 3142 3144 3146 3147 3149 3151 3152 3153 3155 3156 3158 3160 3161 3163 3164 3165 3167 3169 3170 3172 3174 3175 3176 3178 3179 3180 3181 3181 3182 3182 3183 3183 3184 3184 3184 3185 3185 3185 3185 3186 3186 3186 3186 3187 3187 3187 3187 3188 3188 3188 3189 3189 3189
3068 3070 3072 3074 3076 3078 3080 3082 3085 3087 3090 3092 3095 3097 3099 3101 3103 3105 3108 3110 3113 3116 3118 3120 3122 3124 3125 3127 3129 3131 3132 3134 3136 3137 3139 3141 3143 3145 3147 3148 3150 3152 3153 3154 3156 3157 3159 3161 3162 3163 3165 3166 3168 3170 3171 3172 3174 3175 3177 3178 3179 3180 3181 3181 3182 3182 3183 3183 3183 3184 3184 3184 3184 3185 3185 3186 3186 3186 3186 3187 3187 3187 3187 3188 3188 3188 3189 3189
3066 3068 3070 3072 3074 3076 3078 3081 3083 3086 3088 3091 3093 3095 3097 3100 3102 3104 3107 3109 3112 3114 3117 3119 3121 3123 3124 3126 3128 3129 3131 3134 3135 3137 3139 3141 3143 3145 3146 3148 3149 3151 3152 3154 3155 3157 3159 3160 3161 3163 3164 3166 3167 3169 3170 3171 3173 3174 3176 3177 3178 3179 3180 3181 3181 3182 3182 3183 3183 3183 3183 3184 3184 3184 3185 3185 3185 3185 3185 3186 3186 3187 3187 3188 3188 3188 3188 3188
3064 3067 3069 3071 3073 3075 3077 3079 3082 3084 3087 3089 3092 3094 3096 3098 3101 3103 3106 3108 3111 3113 3115 3117 3120 3122 3123 3125 3127 3128 3130 3133 3135 3136 3138 3140 3142 3144 3146 3147 3149 3150 3151 3153 3155 3157 3158 3159 3161 3162 3163 3165 3166 3167 3169 3170 3172 3173 3175 3176 3177 3178 3179 3180 3180 3181 3182 3182 3182 3182 3182 3183 3183 3183 3184 3185 3185 3184 3185 3185 3186 3186 3187 3187 3188 3188 3188 3188
3062 3065 3067 3069 3071 3074 3076 3078 3081 3083 3086 3088 3091 3093 3095 3097 3100 3102 3105 3107 3109 3111 3114 3116 3118 3120 3122 3124 3126 3127 3130 3133 3134 3136 3137 3139 3141 3143 3145 3146 3148 3149 3151 3152 3154 3156 3157 3159 3160 3161 3163 3164 3165 3166 3168 3170 3171 3173 3174 3175 3176 3177 3178 3179 3180 3180 3181 3181 3181 3181 3181 3182 3183 3183 3183 3184 3183 3184 3184 3184 3185 3185 3186 3187 3187 3187 3188 3188
3060 3063 3065 3068 3070 3072 3074 3077 3079 3082 3085 3087 3090 3092 3094 3096 3099 3101 3104 3106 3108 3110 3113 3115 3117 3119 3121 3123 3124 3127 3130 3132 3133 3135 3137 3139 3141 3142 3144 3146 3147 3149 3150 3152 3154 3155 3157 3158 3160 3161 3162 3163 3165 3166 3167 3169 3170 3172 3173 3174 3175 3176 3177 3178 3179 3179 3180 3180 3180 3180 3180 3181 3181 3181 3182 3182 3182 3183 3183 3184 3184 3185 3185 3186 3186 3187 3187 3187
3058 3060 3063 3066 3069 3071 3073 3075 3078 3081 3083 3086 3089 3091 3093 3095 3098 3100 3103 3105 3107 3109 3112 3114 3116 3118 3120 3122 3123 3127 3130 3131 3133 3134 3136 3138 3139 3141 3143 3145 3146 3148 3149 3151 3153 3154 3156 3157 3159 3160 3161 3162 3164 3165 3167 3168 3169 3171 3172 3173 3174 3175 3176 3177 3177 3178 3179 3179 3179 3179 3179 3179 3180 3180 3181 3181 3181 3182 3183 3183 3183 3184 3184 3185 3185 3186 3186 3186
3055 3058 3061 3064 3067 3069 3072 3074 3076 3079 3082 3085 3088 3090 3092 3094 3097 3099 3102 3103 3106 3109 3111 3113 3115 3117 3118 3120 3123 3126 3128 3130 3132 3133 3135 3137 3138 3140 3142 3144 3145 3147 3149 3150 3152 3153 3155 3156 3158 3159 3160 3162 3163 3165 3166 3167 3168 3169 3171 3172 3173 3174 3174 3175 3176 3177 3177 3178 3178 3178 3178 3177 3178 3180 3180 3179 3180 3181 3182 3182 3183 3183 3184 3184 3185 3185 3185 3185
3053 3056 3059 3062 3065 3067 3070 3072 3075 3077 3080 3084 3087 3089 3091 3093 3096 3098 3101 3103 3105 3108 3110 3112 3114 3116 3117 3119 3122 3125 3126 3128 3130 3132 3134 3136 3137 3139 3141 3143 3144 3146 3148 3149 3151 3152 3154 3155 3156 3158 3159 3161 3162 3163 3164 3165 3167 3168 3169 3170 3172 3172 3173 3174 3175 3176 3176 3176 3177 3178 3177 3176 3177 3178 3178 3178 3179 3180 3180 3181 3182 3182 3183 3183 3184 3184 3184 3184
3051 3054 3057 3060 3063 3066 3068 3071 3073 3076 3079 3082 3085 3088 3090 3092 3095 3097 3100 3102 3104 3107 3109 3111 3113 3114 3116 3118 3121 3123 3124 3127 3129 3131 3133 3134 3136 3138 3140 3142 3143 3145 3147 3148 3150 3151 3153 3154 3156 3157 3158 3160 3161 3162 3163 3164 3165 3167 3168 3169 3170 3171 3171 3172 3173 3174 3175 3175 3176 3176 3175 3175 3176 3177 3176 3177 3178 3178 3179 3180 3181 3181 3182 3182 3183 3183 3183 3183
3048 3051 3054 3058 3061 3064 3067 3069 3072 3075 3078 3080 3083 3086 3089 3092 3094 3096 3099 3101 3104 3106 3108 3110 3112 3113 3115 3118 3120 3121 3123 3125 3127 3130 3132 3133 3135 3137 3139 3141 3142 3144 3145 3147 3149 3150 3151 3153 3154 3155 3157 3158 3160 3161 3162 3163 3164 3165 3166 3167 3168 3169 3170 3171 3172 3173 3173 3174 3175 3175 3174 3174 3175 3175 3176 3177 3177 3177 3178 3179 3179 3180 3181 3181 3182 3182 3182 3182
3045 3048 3052 3055 3059 3062 3065 3068 3071 3073 3076 3079 3082 3085 3088 3090 3093 3095 3098 3100 3103 3105 3107 3108 3110 3112 3114 3116 3118 3119 3121 3123 3126 3129 3130 3132 3134 3136 3138 3139 3141 3143 3144 3146 3147 3149 3150 3151 3153 3154 3155 3157 3158 3159 3161 3162 3163 3164 3164 3165 3166 3168 3169 3170 3171 3171 3172 3172 3173 3173 3173 3174 3174 3174 3175 3176 3176 3176 3177 3177 3178 3179 3179 3180 3180 3181 3181 3181
3043 3046 3049 3053 3057 3061 3064 3067 3069 3072 3075 3078 3080 3083 3086 3089 3092 3094 3097 3099 3101 3103 3105 3107 3109 3111 3113 3114 3115 3117 3120 3122 3125 3127 3129 3131 3133 3134 3136 3138 3140 3141 3143 3144 3146 3147 3149 3150 3151 3153 3154 3155 3157 3158 3159 3160 3160 3161 3163 3164 3165 3167 3168 3169 3169 3170 3171 3171 3171 3171 3171 3172 3173 3173 3174 3174 3174 3175 3175 3176 3176 3177 3178 3178 3179 3179 3179 3180
3040 3044 3047 3051 3055 3059 3062 3065 3068 3071 3073 3076 3079 3081 3084 3087 3090 3092 3095 3097 3099 3101 3104 3105 3107 3109 3110 3111 3113 3116 3119 3122 3124 3126 3128 3130 3131 3133 3134 3137 3138 3140 3141 3143 3144 3145 3147 3148 3150 3151 3152 3153 3154 3155 3156 3156 3158 3159 3161 3162 3163 3165 3166 3167 3168 3169 3169 3169 3170 3169 3169 3170 3172 3172 3172 3173 3173 3173 3174 3174 3175 3175 3176 3177 3177 3177 3178 3178
3038 3042 3045 3049 3053 3057 3060 3064 3067 3069 3071 3074 3076 3079 3082 3085 3088 3090 3092 3094 3097 3098 3100 3101 3102 3105 3106 3109 3112 3116 3118 3121 3123 3125 3127 3128 3130 3131 3133 3135 3137 3138 3140 3141 3142 3144 3145 3147 3148 3148 3149 3150 3152 3154 3155 3156 3158 3159 3160 3162 3163 3164 3165 3166 3167 3167 3168 3168 3168 3167 3167 3168 3170 3171 3171 3171 3171 3171 3172 3172 3173 3174 3175 3176 3176 3176 3176 3176
3036 3039 3043 3047 3051 3055 3058 3062 3065 3067 3069 3071 3074 3077 3079 3081 3084 3086 3088 3091 3094 3096 3097 3098 3100 3104 3106 3109 3112 3114 3117 3119 3121 3123 3125 3127 3129 3130 3132 3133 3135 3137 3138 3139 3141 3142 3144 3144 3144 3145 3147 3149 3152 3154 3155 3156 3157 3158 3160 3161 3162 3162 3164 3165 3166 3166 3166 3166 3166 3166 3165 3165 3167 3169 3169 3170 3169 3168 3169 3171 3172 3173 3173 3174 3174 3174 3175 3174
3033 3037 3041 3045 3049 3052 3056 3059 3062 3065 3067 3069 3072 3074 3075 3077 3080 3082 3085 3089 3091 3094 3096 3098 3100 3104 3106 3109 3111 3113 3115 3117 3119 3122 3124 3126 3127 3129 3130 3131 3133 3134 3136 3138 3140 3141 3142 3142 3142 3145 3148 3150 3152 3153 3154 3155 3156 3157 3158 3159 3160 3161 3162 3163 3164 3165 3165 3165 3165 3164 3163 3163 3165 3166 3167 3168 3167 3166 3168 3169 3169 3170 3171 3172 3172 3172 3172 3172
3031 3035 3039 3043 3046 3050 3053 3057 3060 3062 3065 3067 3069 3072 3075 3078 3082 3085 3088 3090 3091 3093 3095 3097 3100 3102 3105 3108 3109 3111 3113 3115 3117 3120 3122 3123 3125 3127 3128 3130 3131 3133 3135 3136 3138 3140 3140 3140 3143 3146 3148 3149 3150 3151 3153 3154 3155 3156 3157 3158 3159 3160 3161 3162 3163 3163 3164 3163 3163 3162 3161 3160 3162 3163 3164 3165 3165 3165 3166 3166 3167 3168 3169 3169 3170 3170 3169 3169
3028 3032 3036 3040 3044 3047 3051 3054 3057 3059 3062 3064 3068 3072 3076 3079 3083 3086 3089 3091 3092 3093 3095 3097 3099 3102 3104 3106 3108 3109 3111 3113 3116 3118 3120 3121 3123 3125 3127 3129 3130 3132 3133 3134 3135 3137 3137 3139 3143 3144 3145 3147 3148 3149 3151 3152 3154 3155 3156 3157 3158 3159 3160 3161 3162 3162 3163 3162 3161 3161 3159 3157 3159 3160 3161 3163 3163 3163 3164 3164 3165 3166 3166 3167 3167 3167 3166 3166
3025 3029 3033 3037 3041 3044 3048 3051 3053 3056 3060 3063 3068 3072 3076 3079 3082 3084 3087 3089 3089 3091 3094 3096 3099 3101 3103 3105 3107 3108 3110 3113 3115 3117 3119 3120 3122 3124 3125 3128 3130 3131 3132 3133 3135 3136 3137 3139 3141 3142 3143 3145 3146 3148 3149 3151 3152 3154 3155 3156 3157 3158 3160 3160 3161 3161 3161 3161 3160 3160 3158 3154 3155 3156 3157 3159 3160 3160 3161 3161 3162 3164 3164 3165 3165 3164 3164 3163
3023 3026 3030 3034 3038 3041 3045 3048 3050 3054 3058 3062 3067 3071 3074 3078 3080 3083 3085 3087 3087 3088 3091 3094 3096 3099 3102 3104 3106 3107 3109 3111 3113 3116 3118 3120 3121 3123 3124 3126 3128 3129 3130 3132 3134 3136 3137 3138 3139 3140 3142 3143 3145 3146 3148 3150 3151 3153 3154 3155 3156 3158 3159 3160 3160 3160 3160 3159 3159 3159 3158 3153 3151 3154 3154 3156 3157 3158 3158 3159 3160 3162 3162 3162 3162 3162 3161 3161
3020 3023 3027 3031 3034 3038 3042 3044 3048 3053 3056 3062 3066 3069 3073 3076 3078 3081 3083 3086 3085 3084 3087 3090 3093 3096 3098 3101 3103 3106 3108 3108 3111 3113 3115 3118 3119 3121 3123 3124 3125 3127 3129 3132 3133 3134 3135 3136 3137 3139 3140 3142 3143 3145 3147 3149 3150 3152 3153 3154 3155 3157 3158 3159 3159 3159 3159 3158 3157 3158 3158 3153 3149 3150 3153 3154 3154 3154 3155 3156 3157 3159 3159 3159 3159 3159 3158 3157
3017 3021 3024 3028 3031 3035 3038 3041 3046 3050 3054 3061 3064 3067 3071 3074 3077 3079 3082 3085 3082 3080 3084 3086 3089 3092 3095 3098 3101 3103 3104 3104 3107 3110 3112 3115 3117 3119 3120 3121 3123 3125 3128 3130 3130 3131 3132 3134 3136 3137 3139 3141 3142 3143 3145 3147 3149 3150 3151 3153 3154 3156 3157 3157 3158 3158 3157 3157 3156 3156 3157 3155 3147 3145 3150 3151 3150 3151 3152 3153 3154 3155 3155 3155 3155 3156 3154 3154
3014 3018 3022 3025 3029 3032 3036 3040 3045 3049 3055 3059 3062 3066 3069 3072 3075 3077 3081 3083 3077 3075 3079 3082 3086 3090 3092 3096 3099 3100 3101 3102 3105 3106 3109 3112 3114 3116 3118 3120 3122 3124 3126 3126 3127 3129 3131 3133 3134 3136 3137 3139 3140 3143 3144 3146 3148 3149 3150 3152 3153 3154 3155 3156 3156 3156 3156 3155 3154 3153 3155 3155 3146 3142 3146 3147 3146 3148 3149 3150 3150 3151 3151 3151 3152 3152 3151 3153
3012 3015 3019 3023 3026 3029 3033 3038 3043 3049 3054 3057 3060 3064 3068 3071 3074 3077 3080 3078 3071 3071 3075 3078 3082 3086 3089 3093 3095 3097 3098 3100 3102 3104 3107 3110 3111 3114 3116 3119 3122 3124 3125 3125 3127 3129 3130 3132 3134 3135 3136 3137 3140 3142 3144 3145 3146 3148 3150 3151 3152 3153 3154 3155 3155 3155 3155 3153 3151 3151 3153 3152 3144 3139 3143 3144 3144 3145 3146 3147 3147 3147 3148 3148 3148 3148 3149 3151
3009 3013 3016 3020 3023 3026 3030 3034 3041 3047 3051 3054 3058 3062 3066 3069 3071 3075 3077 3071 3066 3069 3072 3074 3078 3081 3085 3088 3090 3093 3095 3098 3100 3103 3105 3107 3109 3112 3114 3117 3120 3122 3123 3124 3126 3128 3129 3131 3132 3133 3135 3137 3139 3141 3142 3144 3145 3147 3148 3149 3151 3152 3152 3154 3153 3154 3155 3151 3147 3149 3150 3150 3145 3138 3139 3141 3142 3143 3144 3144 3145 3145 3146 3145 3146 3147 3148 3150
3006 3010 3014 3017 3021 3024 3028 3033 3039 3043 3046 3050 3055 3059 3063 3067 3069 3070 3069 3064 3063 3066 3067 3070 3074 3077 3080 3083 3085 3088 3091 3094 3097 3100 3101 3103 3106 3108 3111 3114 3116 3119 3121 3122 3123 3125 3127 3129 3130 3131 3133 3135 3137 3139 3141 3142 3143 3145 3146 3148 3150 3151 3152 3152 3152 3153 3153 3148 3146 3147 3148 3148 3143 3136 3137 3140 3140 3142 3142 3143 3143 3143 3144 3144 3145 3146 3147 3148
3003 3007 3010 3014 3018 3022 3027 3032 3037 3040 3043 3047 3052 3056 3059 3063 3064 3063 3060 3060 3061 3061 3062 3066 3069 3072 3076 3079 3082 3084 3087 3091 3094 3097 3099 3101 3102 3104 3107 3108 3110 3114 3116 3118 3120 3123 3125 3127 3128 3130 3131 3133 3135 3136 3138 3140 3141 3143 3145 3147 3149 3150 3152 3151 3150 3151 3149 3145 3145 3146 3147 3144 3135 3132 3136 3139 3139 3140 3140 3141 3142 3142 3143 3144 3145 3146 3146 3147
3000 3004 3007 3010 3014 3019 3024 3029 3033 3036 3040 3045 3050 3053 3056 3057 3056 3053 3053 3055 3055 3055 3059 3064 3066 3069 3073 3076 3079 3081 3085 3089 3091 3094 3097 3099 3101 3103 3105 3107 3108 3110 3110 3113 3117 3120 3123 3125 3125 3126 3128 3129 3131 3132 3134 3136 3138 3140 3142 3144 3145 3148 3151 3150 3150 3150 3145 3143 3143 3145 3146 3140 3130 3129 3133 3136 3138 3138 3138 3140 3141 3142 3143 3143 3144 3145 3145 3145
2997 3000 3003 3007 3012 3017 3022 3026 3029 3033 3038 3042 3046 3050 3052 3052 3048 3048 3049 3050 3052 3054 3056 3060 3063 3067 3070 3072 3075 3078 3082 3086 3088 3091 3094 3096 3098 3100 3102 3104 3106 3107 3109 3113 3115 3117 3119 3120 3120 3122 3125 3126 3128 3130 3132 3134 3137 3138 3140 3142 3141 3143 3145 3145 3146 3145 3142 3141 3142 3144 3143 3134 3128 3128 3129 3131 3134 3135 3136 3138 3140 3141 3142 3142 3143 3144 3144 3144
2995 2997 3000 3005 3009 3013 3018 3022 3026 3030 3035 3039 3043 3045 3045 3043 3042 3042 3043 3046 3050 3052 3053 3057 3061 3064 3068 3070 3073 3076 3079 3082 3086 3089 3091 3093 3094 3094 3097 3098 3101 3104 3106 3110 3112 3114 3116 3116 3116 3119 3122 3125 3127 3129 3132 3134 3136 3136 3138 3139 3138 3139 3140 3141 3142 3141 3141 3142 3141 3140 3135 3128 3127 3128 3128 3130 3132 3134 3135 3137 3138 3140 3140 3141 3142 3142 3143 3142
2992 2995 2998 3002 3006 3010 3014 3018 3022 3027 3031 3035 3038 3038 3036 3034 3034 3036 3038 3042 3046 3047 3049 3054 3058 3061 3064 3067 3070 3073 3076 3079 3083 3086 3088 3090 3091 3092 3094 3096 3098 3100 3102 3105 3107 3110 3112 3114 3115 3118 3120 3123 3125 3127 3129 3131 3132 3133 3134 3133 3134 3137 3139 3140 3141 3141 3142 3142 3137 3133 3129 3125 3126 3126 3125 3129 3130 3131 3134 3134 3136 3138 3138 3139 3140 3140 3141 3141
2990 2993 2996 2999 3003 3007 3011 3015 3019 3023 3027 3031 3032 3030 3030 3030 3031 3033 3036 3040 3043 3046 3048 3051 3055 3057 3059 3062 3066 3069 3073 3076 3080 3082 3084 3087 3088 3088 3091 3094 3096 3098 3100 3103 3105 3107 3110 3112 3114 3116 3118 3120 3123 3125 3126 3128 3128 3129 3129 3130 3133 3137 3138 3139 3140 3141 3143 3141 3134 3128 3125 3124 3125 3124 3123 3125 3126 3127 3130 3132 3134 3136 3136 3137 3137 3137 3138 3139
2989 2991 2994 2998 3002 3005 3008 3012 3016 3020 3024 3028 3028 3027 3027 3028 3029 3031 3035 3038 3041 3044 3047 3048 3051 3054 3056 3058 3062 3065 3069 3072 3075 3078 3080 3082 3083 3083 3086 3090 3092 3095 3099 3102 3105 3106 3109 3111 3113 3114 3116 3118 3120 3122 3123 3124 3125 3125 3126 3128 3131 3133 3134 3135 3138 3137 3139 3140 3133 3125 3122 3120 3120 3120 3121 3124 3125 3126 3128 3130 3131 3132 3133 3133 3133 3135 3136 3136
2987 2989 2992 2995 3000 3003 3007 3010 3013 3018 3021 3022 3023 3023 3023 3025 3027 3030 3034 3037 3039 3042 3044 3046 3049 3052 3054 3056 3059 3062 3066 3068 3071 3074 3076 3078 3078 3079 3082 3087 3090 3093 3097 3100 3103 3104 3107 3109 3110 3112 3114 3116 3117 3118 3117 3116 3119 3121 3124 3127 3128 3130 3130 3131 3133 3132 3133 3136 3132 3125 3120 3116 3114 3116 3119 3121 3122 3124 3125 3126 3127 3128 3129 3130 3131 3132 3133 3133
2985 2988 2990 2993 2996 3000 3004 3008 3011 3015 3016 3016 3016 3017 3018 3022 3025 3028 3032 3035 3038 3040 3042 3044 3047 3049 3052 3054 3057 3060 3063 3065 3067 3070 3072 3074 3075 3076 3080 3084 3087 3091 3095 3099 3100 3103 3105 3106 3107 3109 3111 3112 3111 3110 3109 3110 3114 3117 3120 3123 3124 3126 3127 3128 3130 3129 3129 3131 3131 3127 3120 3112 3112 3116 3117 3118 3120 3121 3122 3123 3124 3126 3127 3128 3128 3129 3130 3131
2984 2986 2988 2991 2994 2997 3001 3004 3007 3010 3011 3011 3013 3014 3016 3019 3023 3026 3030 3033 3035 3037 3040 3043 3046 3047 3049 3052 3054 3057 3060 3062 3064 3067 3068 3070 3071 3073 3076 3080 3083 3087 3092 3094 3096 3098 3101 3102 3103 3105 3106 3106 3106 3107 3108 3111 3114 3115 3116 3117 3118 3119 3122 3124 3126 3125 3126 3127 3127 3128 3119 3108 3111 3116 3115 3117 3119 3119 3121 3122 3123 3125 3125 3126 3126 3127 3128 3129
2980 2983 2986 2989 2991 2994 2997 3000 3003 3006 3006 3006 3009 3011 3013 3017 3021 3024 3027 3030 3033 3035 3038 3041 3044 3046 3048 3050 3052 3055 3057 3059 3061 3063 3064 3066 3067 3070 3073 3077 3080 3084 3088 3090 3092 3094 3097 3099 3101 3102 3103 3104 3105 3107 3108 3110 3112 3113 3114 3114 3114 3115 3115 3117 3119 3119 3123 3125 3124 3127 3120 3106 3107 3114 3114 3115 3118 3118 3120 3121 3122 3123 3124 3124 3125 3126 3127 3127
2975 2979 2984 2987 2989 2992 2995 2997 3000 3002 3001 3002 3006 3009 3011 3015 3018 3021 3024 3027 3030 3033 3035 3038 3041 3043 3046 3048 3050 3052 3054 3057 3058 3059 3062 3063 3065 3068 3071 3074 3078 3081 3085 3087 3089 3091 3094 3096 3097 3099 3100 3102 3103 3104 3106 3108 3109 3109 3108 3108 3109 3111 3111 3114 3117 3117 3121 3120 3120 3125 3120 3105 3105 3111 3111 3113 3115 3116 3118 3119 3120 3122 3123 3123 3124 3124 3125 3124
2974 2977 2981 2985 2988 2990 2991 2992 2993 2995 2996 2999 3003 3006 3008 3012 3015 3019 3022 3025 3027 3030 3032 3035 3038 3040 3043 3045 3047 3050 3052 3054 3055 3057 3060 3061 3062 3066 3069 3072 3075 3077 3080 3082 3083 3086 3088 3090 3092 3095 3099 3100 3102 3103 3102 3102 3102 3100 3100 3102 3104 3107 3110 3114 3116 3117 3118 3115 3116 3120 3113 3101 3104 3109 3109 3112 3113 3114 3116 3117 3118 3121 3122 3122 3122 3122 3122 3121
2973 2975 2978 2982 2985 2987 2988 2989 2990 2992 2993 2996 3000 3003 3005 3008 3011 3015 3019 3022 3024 3027 3030 3032 3035 3038 3040 3043 3045 3048 3050 3052 3053 3055 3057 3058 3060 3063 3066 3069 3071 3074 3076 3079 3080 3082 3084 3084 3085 3088 3091 3092 3093 3091 3088 3088 3091 3093 3094 3097 3100 3103 3107 3110 3113 3116 3113 3109 3110 3111 3103 3099 3103 3107 3108 3111 3112 3112 3113 3115 3117 3119 3120 3120 3121 3121 3121 3120
2971 2973 2975 2977 2980 2982 2984 2986 2989 2991 2992 2995 2998 3000 3002 3005 3008 3011 3015 3019 3021 3024 3027 3029 3032 3035 3037 3039 3042 3044 3046 3049 3051 3052 3053 3055 3057 3060 3063 3065 3068 3071 3074 3076 3078 3080 3080 3080 3080 3080 3080 3079 3079 3079 3080 3083 3087 3090 3091 3094 3097 3100 3103 3106 3110 3109 3105 3104 3103 3100 3098 3099 3100 3102 3106 3108 3109 3110 3111 3113 3115 3116 3117 3118 3119 3119 3119 3119
2968 2970 2972 2974 2975 2977 2979 2981 2984 2987 2990 2992 2994 2996 2998 3001 3005 3008 3012 3015 3018 3021 3024 3026 3029 3031 3032 3035 3038 3040 3042 3045 3047 3047 3050 3052 3054 3057 3060 3062 3064 3067 3070 3073 3074 3076 3076 3076 3076 3076 3075 3075 3077 3079 3081 3083 3086 3088 3089 3091 3093 3096 3099 3101 3101 3099 3099 3101 3095 3090 3095 3097 3095 3097 3103 3104 3106 3108 3108 3110 3112 3112 3113 3114 3115 3116 3116 3116
2965 2967 2969 2971 2972 2973 2975 2977 2980 2983 2985 2988 2991 2992 2995 2998 3001 3004 3008 3012 3015 3018 3021 3023 3025 3027 3029 3031 3034 3036 3039 3041 3043 3044 3046 3049 3051 3054 3056 3058 3060 3063 3066 3068 3070 3071 3072 3071 3072 3073 3073 3074 3077 3078 3079 3081 3082 3085 3087 3088 3089 3092 3093 3093 3093 3092 3094 3093 3086 3086 3092 3093 3090 3094 3099 3101 3103 3104 3105 3107 3108 3108 3108 3109 3110 3111 3111 3111
2962 2964 2967 2969 2970 2970 2972 2974 2977 2980 2982 2985 2987 2988 2991 2994 2996 3000 3004 3008 3010 3013 3016 3018 3020 3024 3027 3029 3031 3032 3034 3035 3037 3039 3042 3044 3047 3049 3052 3054 3056 3058 3061 3063 3065 3067 3068 3068 3069 3071 3070 3071 3073 3075 3077 3078 3079 3081 3082 3084 3086 3088 3089 3088 3088 3088 3087 3085 3084 3087 3089 3087 3086 3090 3095 3098 3100 3101 3102 3103 3103 3103 3104 3104 3104 3105 3104 3105
2959 2961 2964 2966 2967 2969 2970 2972 2975 2977 2980 2983 2984 2985 2988 2991 2993 2997 3001 3003 3006 3009 3012 3013 3017 3021 3023 3025 3027 3028 3030 3032 3034 3036 3039 3041 3043 3045 3048 3050 3052 3054 3056 3058 3061 3063 3064 3065 3066 3068 3068 3068 3069 3072 3073 3074 3075 3076 3078 3080 3083 3084 3084 3083 3081 3080 3081 3081 3083 3087 3085 3081 3081 3085 3090 3094 3096 3096 3097 3097 3098 3099 3099 3099 3098 3098 3098 3099
2955 2958 2961 2963 2965 2967 2968 2969 2971 2973 2976 2978 2979 2982 2985 2987 2990 2994 2997 2999 3002 3005 3008 3010 3014 3018 3020 3022 3023 3025 3029 3032 3033 3035 3037 3039 3040 3043 3045 3047 3049 3051 3053 3055 3057 3059 3061 3062 3063 3065 3065 3063 3065 3068 3068 3069 3071 3071 3073 3075 3077 3076 3076 3074 3073 3074 3077 3078 3081 3083 3079 3075 3076 3083 3088 3089 3089 3091 3092 3092 3093 3094 3094 3093 3093 3092 3092 3093
2952 2954 2957 2960 2962 2964 2965 2967 2968 2970 2971 2973 2976 2978 2981 2984 2987 2991 2993 2995 2999 3002 3006 3008 3011 3014 3016 3017 3020 3024 3027 3029 3030 3033 3035 3036 3038 3041 3043 3044 3047 3048 3050 3052 3054 3055 3057 3058 3059 3061 3060 3059 3061 3063 3063 3066 3067 3064 3065 3068 3069 3068 3068 3068 3069 3071 3074 3075 3076 3075 3073 3073 3077 3081 3082 3082 3083 3085 3087 3088 3089 3088 3088 3087 3087 3087 3087 3087